Vorticity
nan nan nan nan nan nan nan nan nan nan nan nan nan nan nan nan nan nan nan nan nan nan nan nan nan nan nan nan nan nan nan nan nan nan nan nan nan nan nan nan nan nan nan nan
nan 11 4 3 6 4 4 8 11 11 9 6 7 10 12 12 8 4 9 9 7 6 5 6 6 7 7 6 9 9 8 6 6 7 7 7 10 9 7 9 8 7 7 nan
nan 5 10 8 4 7 5 10 4 11 8 9 9 15 12 11 10 11 3 6 8 10 6 6 7 7 7 7 8 9 9 7 6 6 7 8 5 9 11 9 9 8 7 nan
nan 6 7 10 9 8 9 12 10 8 3 5 13 11 18 13 11 7 6 10 10 6 5 8 9 9 7 8 8 9 10 8 8 6 4 8 7 8 9 8 9 9 9 nan
nan 17 10 9 11 6 15 12 8 3 8 6 14 4 12 13 14 15 15 10 7 7 11 8 8 9 9 9 7 8 8 7 7 5 5 7 10 8 8 8 7 7 10 nan
nan 12 16 13 16 11 7 8 7 5 9 10 6 12 12 6 10 19 18 10 12 11 7 9 8 8 9 8 9 8 8 7 6 6 8 6 6 5 10 11 6 8 7 nan
nan 8 11 12 3 12 7 1 2 10 4 8 8 8 9 14 9 9 17 16 11 9 10 9 8 8 8 9 8 7 8 8 8 7 7 8 6 8 7 8 7 8 9 nan
nan 13 9 2 2 7 11 3 10 9 9 8 7 11 5 9 9 8 10 14 19 15 9 10 10 8 8 8 8 8 7 7 8 8 7 7 8 6 8 5 9 9 8 nan
nan 7 8 12 14 12 11 8 6 14 13 4 11 14 7 7 10 7 8 15 18 18 15 11 9 9 8 9 9 8 6 9 9 7 7 8 7 6 7 9 9 6 7 nan
nan 7 9 11 7 6 4 16 13 6 5 10 6 8 12 12 12 13 11 10 12 15 18 15 11 10 10 9 9 8 9 9 8 8 7 8 8 8 7 8 6 6 9 nan
nan 8 15 7 9 7 11 2 1 2 11 14 8 7 12 11 7 10 15 9 8 11 13 13 15 11 10 10 11 10 11 10 9 9 8 7 8 8 8 8 8 8 7 nan
nan 9 8 3 9 9 5 13 11 12 6 -2 2 15 13 10 8 7 6 7 7 9 14 18 15 14 13 11 10 10 10 10 9 9 9 9 7 8 7 7 8 8 8 nan
nan 7 8 10 8 8 12 9 3 3 5 9 11 11 12 8 6 6 6 6 5 8 14 17 15 15 13 13 11 10 8 10 10 9 8 8 8 7 7 8 8 8 8 nan
nan 7 4 6 6 12 16 8 10 8 8 12 9 7 9 9 7 8 8 6 5 9 11 13 14 13 12 13 13 10 11 10 8 8 10 9 9 8 9 9 9 9 8 nan
nan 12 6 6 7 7 9 14 13 9 5 5 9 13 11 13 15 12 8 8 8 7 8 11 13 13 14 11 8 11 12 11 11 11 9 8 10 11 10 10 10 10 9 nan
nan 14 11 4 7 11 11 9 9 8 9 8 4 6 14 12 16 14 9 8 8 7 7 9 10 12 13 10 10 9 11 13 12 10 8 10 11 10 10 10 11 10 9 nan
nan 6 9 9 10 6 15 15 9 7 7 9 9 11 11 12 12 10 10 10 9 8 8 8 8 7 7 9 9 10 11 11 11 11 12 12 10 10 9 10 11 11 11 nan
nan 5 6 14 11 5 7 14 12 14 13 14 13 11 13 12 12 11 12 12 11 6 6 8 7 7 7 7 7 10 11 10 10 12 11 12 13 11 9 11 9 9 11 nan
nan 6 6 13 3 8 9 10 11 11 11 13 11 17 13 8 3 10 12 11 10 8 7 7 7 7 8 8 10 11 9 10 11 10 11 13 13 12 13 11 10 10 11 nan
nan 8 8 8 9 5 13 15 10 8 21 16 12 12 9 5 7 11 10 8 9 9 8 7 8 8 9 10 11 10 11 10 12 10 10 13 14 14 13 11 12 11 11 nan
nan 12 10 3 8 7 16 16 10 3 16 20 11 6 7 6 14 12 8 7 6 8 9 8 7 8 9 10 11 10 10 12 12 10 12 15 17 16 13 14 16 13 12 nan
nan 7 11 10 10 14 12 10 1 4 10 12 11 11 8 11 7 4 4 6 8 12 12 8 5 8 10 11 11 11 10 12 14 13 10 12 14 17 20 16 14 17 18 nan
nan 10 9 16 9 20 13 4 6 6 9 12 12 13 10 5 5 5 7 10 12 13 11 10 10 9 9 10 10 12 13 13 14 14 14 11 9 10 15 16 11 12 13 nan
nan 14 16 15 18 13 9 3 8 10 10 12 14 12 10 6 6 7 9 10 12 13 11 10 10 10 9 10 10 13 12 13 16 17 13 10 9 8 11 13 14 14 11 nan
nan 19 10 4 11 12 14 13 7 7 11 11 14 11 9 8 6 7 9 10 11 12 12 10 9 9 11 10 11 15 15 17 17 14 10 10 11 9 9 9 13 17 14 nan
nan nan nan nan nan nan nan nan nan nan nan nan nan nan nan nan nan nan nan nan nan nan nan nan nan nan nan nan nan nan nan nan nan nan nan nan nan nan nan nan nan nan nan nan
CAPE
0 0 42 54 59 5 13 1 13 398 382 600 481 313 264 751 199 374 702 553 477 457 429 577 721 831 911 861 715 1188 1297 1432 1336 716 1111 922 665 736 553 815 847 1068 1008 1312
0 0 1 0 0 0 6 0 258 768 651 508 367 285 289 535 637 351 444 698 495 408 496 621 698 863 1026 1106 878 952 1269 1221 1342 848 1281 991 889 898 888 1074 1131 812 1127 1563
0 0 0 0 0 0 10 35 138 195 793 672 525 606 500 481 650 697 574 338 423 509 612 747 799 818 1014 1153 1230 1072 1236 1039 1379 1193 1632 1593 1386 1777 1583 1264 1156 1120 1613 1329
0 0 0 0 0 0 32 5 77 349 514 154 257 85 487 589 580 599 700 557 370 505 571 595 724 844 952 1067 1238 1201 904 975 1632 1996 1601 1496 1047 1200 854 743 755 1643 2099 1811
0 0 0 0 0 0 4 54 373 282 139 68 132 139 248 490 566 522 496 400 341 303 459 427 589 618 768 1025 1086 1210 1152 1353 1757 2094 1888 1930 1221 965 943 675 1874 1729 2666 2254
0 0 0 0 0 0 42 313 445 314 80 114 22 1 121 219 271 367 428 397 539 405 351 413 504 586 666 880 1045 1044 1561 1368 1748 2149 2028 1905 1366 1285 1189 970 1169 1179 1795 2069
0 0 0 2 28 77 211 122 137 146 139 82 7 14 94 75 193 344 408 326 242 524 543 445 618 647 733 745 931 977 1609 1882 1653 1865 1824 1878 1923 1496 1063 1137 1021 1014 1139 1231
0 0 0 1 4 22 3 63 88 75 55 33 0 28 158 101 247 387 481 571 553 267 472 470 593 748 815 752 843 1029 1348 2017 1916 1876 1961 1876 2082 2237 1095 1109 962 923 733 673
0 11 0 0 0 0 10 2 15 4 0 0 34 8 52 81 255 294 462 542 525 624 319 420 553 682 776 827 861 1019 1230 1811 1947 1726 2100 1952 2207 2021 1191 1438 1820 1436 1345 1212
2 13 0 0 0 0 0 7 3 2 25 23 30 0 23 9 96 128 208 350 623 508 455 217 345 738 780 743 830 1031 1279 1686 1867 1583 1781 1787 1822 1911 1811 1961 1861 1589 1548 1881
0 5 2 0 0 7 0 1 0 9 14 37 34 30 0 27 126 258 242 343 495 510 439 448 284 248 648 788 839 946 1310 1454 1729 1610 1588 1749 1647 1667 1917 1765 1935 1920 2093 2251
0 29 54 35 0 0 0 9 28 37 63 12 8 33 0 182 192 352 612 710 842 725 651 666 523 493 464 832 1022 1036 1161 1289 1384 1417 1585 1778 1768 1689 1568 1661 1562 1663 1956 2203
0 12 42 13 0 0 0 4 7 14 21 32 40 85 337 544 422 303 336 733 715 703 1012 749 568 595 636 775 1148 1211 1303 1284 1370 1516 1507 1646 1736 1711 1643 1502 1680 1651 1736 1961
0 62 49 55 37 3 0 0 0 1 26 39 52 32 61 264 536 504 510 650 392 508 922 1056 768 701 628 757 1051 1260 1319 1452 1370 1521 1615 1720 1765 1739 1667 1678 1679 1671 1801 1834
1 64 36 9 0 0 0 0 0 0 0 6 28 33 16 21 145 582 582 566 354 486 410 768 908 824 588 451 426 665 954 1182 1452 1630 1839 1992 2084 2020 2060 1906 1869 1862 1868 1742
0 71 36 4 0 0 0 0 0 0 0 0 0 0 207 59 462 638 423 511 429 356 407 433 594 800 950 717 871 687 867 740 1373 1333 1340 1674 2080 2419 2299 2203 2243 2211 2162 1888
4 52 45 15 0 0 0 0 0 0 0 0 0 6 510 535 486 576 529 471 448 431 383 547 775 900 1045 834 850 1033 1090 1288 1564 1458 1554 1686 1881 2051 2031 2028 2174 2346 2432 2146
14 44 19 39 0 0 0 0 0 0 0 0 0 0 350 495 435 332 345 393 262 344 197 374 740 864 778 671 579 767 956 1312 1384 1508 1665 1797 1928 1942 1897 2015 2094 2386 2511 2428
1 28 12 17 2 0 0 0 0 0 0 0 0 157 473 309 198 108 32 115 99 147 89 206 645 768 739 620 614 688 769 880 1384 1313 1475 1812 1954 2482 2406 2490 2371 2316 2277 2372
0 37 32 5 21 16 3 0 0 0 0 0 19 257 301 348 76 183 194 74 54 52 204 331 467 529 433 429 495 579 488 545 715 1485 1385 1609 1765 2070 2042 2117 2594 2289 2202 2247
6 53 43 62 18 6 0 0 0 0 7 0 2 4 237 63 45 34 71 102 223 340 580 618 517 344 413 452 425 424 543 1001 921 1139 1081 1316 1345 1679 1748 1824 2587 2338 2282 2723
50 78 34 56 52 3 0 0 0 0 0 0 0 8 283 144 2 2 8 0 0 62 537 630 426 407 356 478 552 284 622 954 978 1157 1003 487 491 578 883 1064 1075 1319 2058 2008
81 50 71 15 64 87 6 0 7 5 0 0 7 81 138 7 0 0 0 0 0 37 280 536 459 409 476 462 557 391 539 1395 975 905 904 190 18 3 29 140 97 225 40 32
28 18 90 145 72 91 34 15 73 65 14 32 0 129 137 0 0 0 0 0 0 105 473 561 496 384 381 399 403 645 495 1157 1189 850 193 2 3 4 2 1 4 32 13 11
21 8 123 66 147 33 47 82 117 98 101 109 118 112 13 0 0 0 0 0 0 43 234 556 444 316 287 235 377 353 766 909 922 73 10 6 5 3 4 4 3 4 3 2
19 68 98 5 142 126 37 141 131 170 175 107 120 83 18 12 3 48 15 7 6 31 134 254 248 200 182 143 394 147 348 365 2 5 6 4 4 6 6 6 5 0 0 1